CZ-6A DEB

Satellite information

Favourite Embed

Satellite Type and Status

DEBRISIN ORBIT

Key statistics

Satellite CZ-6A DEB at a glance.

Uptime

395

Days in orbit

Revolutions

≈ 14.2

Per day

Orbit

LEO

Low Earth Orbit

Inclination

89.0

Latest

Satellite identification and parameters

Extended collection of information and parameters for CZ-6A DEB.

Object identification

Identified? True

Debris? True

Object name: CZ-6A DEB

International designator: 2024-140KJ

Object number (NORAD): 60879

Object ID (CCSDS): 60879

Country: PEOPLES REPUBLIC OF CHINA (PRC)

Current information (Y/N): Y

RCS size: SMALL

Orbital parameters

Period: 101.559 minutes

Inclination: 89.0384 deg

SMA: 7210.625 km

Apoapsis: 872.074 km

Periapsis: 792.906 km

RAAN: 308.6865 deg

Eccentricy: 0.00548968

Argument of periapsis: 34.0999 deg

Mean anomaly: 326.3697 deg

Mean motion: 14.1789289 rev/day

Mean motion (dot): 0.00001046 rev/day2

B* drag term: 0.00049780844 1/REarth

Two-line elements (TLE)

Creation date: Sept. 4, 2025, 10:13 a.m.

Reference frame: TEME

Reference center: EARTH

Epoch: Sept. 4, 2025, 4:30 a.m. UTC

TLE line 0: 0 CZ-6A DEB

TLE line 1: 1 60879U 24140KJ 25247.18775206 .00001046 00000-0 49781-3 0 9990

TLE line 2: 2 60879 89.0384 308.6865 0054897 34.0999 326.3697 14.17892890 54393

Live tracking on map

Real-time ground track for satellite CZ-6A DEB.

In-orbit conjunctions

A list of the most updated potential collisions computed for object CZ-6A DEB.

Target Orbit TCA Probability of collision Miss distance Type
FENGYUN 1C DEB SSO 2025-05-02 06:11:46 0.0003054782 50.0 (m) DEBRIS
SL-16 R/B LEO 2025-02-15 14:41:45 0.000335423 719.0 (m) ROCKET BODY
CZ-6A DEB SSO 2025-02-06 12:11:10 0.000363626 347.0 (m) DEBRIS
IRIDIUM 33 DEB LEO 2025-02-02 01:09:08 0.0001623564 157.0 (m) DEBRIS
CZ-6A DEB LEO 2025-01-17 17:47:32 0.0001748315 377.0 (m) DEBRIS

Associated space launch

18 Low Earth Orbit communication satellites with Ku, Q and V band payloads for the G60 constellation operated by Shanghai Spacecom Satellite Technology (SSST) with funding backed by the Shanghai local government. Initial constellation will consist of 1296 satellites by 2027 with long term plans to expand it to 12000 satellites.

CZ-6A DEB was lifted into orbit during the mission ‘Long March 6A | G60 Polar Group 01’, on board a Long March 6A space rocket.

The launch took place on Aug. 6, 2024, 6:42 a.m. from Launch Complex 9A.

For more information about the launch, click the button.

Launch to space Long March 6A | G60 Polar Group 01
Long March 6A | G60 Polar Group 01

Agency: N/A

Status: Launch Successful

Launch date: Aug. 6, 2024, 6:42 a.m. UTC

Rocket: Long March 6A

Launch pad: Launch Complex 9A

Location: Taiyuan Satellite Launch Center, People's Republic of China

...

Latest news about this satellite

News about space launch
Brightness of first Chinese broadband constellation satellites alarms astronomers

The first satellites of a Chinese broadband constellation are significantly brighter than those of Western systems, posing a new challenge for astronomers.

News about space launch
Chinese rocket stage breaks up into cloud of more than 700 pieces of space debris

HELSINKI — A Chinese Long March 6A rocket’s upper stage has fragmented into a cloud of over 700 pieces of space debris, adding to concerns about long-term orbital safety. China […]

News about space launch
China's Thousand Sails Megaconstellation Kicks Off with Dangerous Debris Field

China's Thousand Sails Megaconstellation Kicks Off with Dangerous Debris Field


Newsletter sign-up

Weekly statistics, charts and insights to help you stay on top of the space industry.